DMSP 5D-2 F11 DEB, 28329

Orbit data source: Space-Track

DMSP 5D-2 F11 DEB, 28329 is space debris in SSO originally from a launch on Thu, 28 Nov 1991 UTC launched from the Air Force Western Test Range (AFWTR). Debris objects in space refer to the collection of defunct objects orbiting the Earth. Examples of debris include non-operational satellites, rocket bodies, and fragments generated from explosions, collisions, or faulty payload assembly.

Loading next visibility...
Identifier
28329, 1991-082AS
Orbit
SSO
Country
Flag of USUS
Related business
Manufacturer
Unknown
Mission
Spacecraft
Bus & Motor
Unknown
Mass
Unknown
Launch date (UTC)
1991-11-28 (35 years ago)
Launch vehicle
Unknown
Launch site
Air Force Western Test Range (AFWTR)
Object type
Payload
Rocket body
Debris
Shape & HBR
Unknown shape, 0.1 m
Radar Cross Section
Medium (>0.1 m² and <1 m²)

Expand to show TLE details & history
Last TLE update: 14 hours ago

TLE from 14 hours ago
0 DMSP 5D-2 F11 DEB
1 28329U 91082AS  26208.69866932  .00005401  00000-0  18111-2 0  9995
2 28329  98.9043 295.7515 0069192  96.3805 264.5266 14.36327229143739
Epoch: 2026-07-27T16:46Z
TLE epoch observation values (Epoch: 2026-07-27T16:46:05.029Z)
Latitude
0.00005°
Longitude
98.85203°
Altitude
778.648 km
Speed
7.462 km/s
True Right ascension
19h 43m 00s
True Declination
0° 00' 00"
Sunlit
Object was in full shadow at epoch
Visualization orbit readout
Latitude
Unknown
Longitude
Unknown
Altitude
Unknown
Speed
Unknown
Apparent Right ascension
Unknown
Apparent Declination
Unknown
Sunlit
N/A
Visualization observer readout
Local Sidereal Time
19:41:37
Azimuth
Unknown
Elevation
Unknown
Doppler factor
Unknown
Orbital elements
Apogee altitude
817.249 km
Perigee altitude
718.361 km
Semi-major axis
7,145.942 km
Eccentricity
0.00692
Inclination
98.9043°
RAAN
295.7515°
Arg. of periapsis
96.3805°
True anomaly
263.73801°
Mean anomaly
264.5266°
Eccentric anomaly
264.13224°
Mean motion
3.59297 °/min
Orbital period
100.2 mins
BSTAR
0.0018111
Loading maneuver chart data...
Computing Atmospheric mass density...

Documentation

Showing up to 5 results
|